25-01-2023, 00:00:00,    358,    0.0,   -4.3,   0.00,   0.00, 1031.6,    0.1, -999.0
25-01-2023, 00:00:10,    358,    0.0,   -4.3,   0.00,   0.00, 1031.6,    0.1, -999.0
25-01-2023, 00:00:20,    358,    0.0,   -4.4,   0.00,   0.00, 1031.5,    0.2, -999.0
25-01-2023, 00:00:30,    358,    0.0,   -4.3,   0.00,   0.00, 1031.6,    0.1, -999.0
25-01-2023, 00:00:40,    358,    0.0,   -4.4,   0.00,   0.00, 1031.5,    0.3, -999.0
25-01-2023, 00:00:50,    358,    0.0,   -4.3,   0.00,   0.00, 1031.6,    0.1, -999.0
25-01-2023, 00:01:00,    358,    0.0,   -4.4,   0.00,   0.00, 1031.5,    0.0, -999.0
25-01-2023, 00:01:10,    358,    0.0,   -4.4,   0.00,   0.00, 1031.6,    0.1, -999.0
25-01-2023, 00:01:20,    358,    0.0,   -4.4,   0.00,   0.00, 1031.6,    0.2, -999.0
25-01-2023, 00:01:30,    358,    0.0,   -4.3,   0.00,   0.00, 1031.6,    0.1, -999.0
25-01-2023, 00:01:40,    358,    0.0,   -4.2,   0.00,   0.00, 1031.5,    0.0, -999.0
25-01-2023, 00:01:50,    358,    0.0,   -4.3,   0.00,   0.00, 1031.5,    0.4, -999.0
25-01-2023, 00:01:59,    358,    0.0,   -4.2,   0.00,   0.00, 1031.6,    0.2, -999.0
25-01-2023, 00:02:10,    358,    0.0,   -4.2,   0.00,   0.00, 1031.5,    0.0, -999.0
25-01-2023, 00:02:20,    358,    0.0,   -4.2,   0.00,   0.00, 1031.5,    0.0, -999.0
25-01-2023, 00:02:30,    358,    0.0,   -4.2,   0.00,   0.00, 1031.5,    0.0, -999.0
25-01-2023, 00:02:39,    358,    0.0,   -4.3,   0.00,   0.00, 1031.5,    0.1, -999.0
25-01-2023, 00:02:50,    358,    0.0,   -4.4,   0.00,   0.00, 1031.5,    0.1, -999.0
25-01-2023, 00:03:00,    358,    0.0,   -4.4,   0.00,   0.00, 1031.5,    0.1, -999.0
25-01-2023, 00:03:09,    358,    0.0,   -4.4,   0.00,   0.00, 1031.5,    0.2, -999.0
25-01-2023, 00:03:20,    358,    0.0,   -4.3,   0.00,   0.00, 1031.5,    0.1, -999.0
25-01-2023, 00:03:30,    358,    0.0,   -4.4,   0.00,   0.00, 1031.5,    0.0, -999.0
25-01-2023, 00:03:39,    358,    0.0,   -4.4,   0.00,   0.00, 1031.5,    0.1, -999.0
25-01-2023, 00:03:49,    358,    0.0,   -4.4,   0.00,   0.00, 1031.5,    0.1, -999.0
25-01-2023, 00:04:00,    358,    0.0,   -4.4,   0.00,   0.00, 1031.5,    0.2, -999.0
25-01-2023, 00:04:10,    358,    0.0,   -4.4,   0.00,   0.00, 1031.5,    0.1, -999.0
25-01-2023, 00:04:19,    358,    0.0,   -4.4,   0.00,   0.00, 1031.5,    0.0, -999.0
25-01-2023, 00:04:29,    358,    0.0,   -4.5,   0.00,   0.00, 1031.5,    0.1, -999.0
25-01-2023, 00:04:40,    358,    0.0,   -4.5,   0.00,   0.00, 1031.5,    0.1, -999.0
25-01-2023, 00:04:49,    358,    0.0,   -4.5,   0.00,   0.00, 1031.5,    0.1, -999.0
25-01-2023, 00:04:59,    358,    0.0,   -4.5,   0.00,   0.00, 1031.5,    0.2, -999.0
25-01-2023, 00:05:09,    358,    0.0,   -4.6,   0.00,   0.00, 1031.5,    0.1, -999.0
25-01-2023, 00:05:20,    358,    0.0,   -4.6,   0.00,   0.00, 1031.5,    0.0, -999.0
25-01-2023, 00:05:29,    358,    0.0,   -4.5,   0.00,   0.00, 1031.5,    0.0, -999.0
25-01-2023, 00:05:39,    358,    0.0,   -4.6,   0.00,   0.00, 1031.5,    0.0, -999.0
25-01-2023, 00:05:49,    358,    0.0,   -4.6,   0.00,   0.00, 1031.5,    0.0, -999.0
25-01-2023, 00:05:59,    358,    0.0,   -4.6,   0.00,   0.00, 1031.5,    0.1, -999.0
25-01-2023, 00:06:09,    358,    0.0,   -4.7,   0.00,   0.00, 1031.5,    0.1, -999.0
25-01-2023, 00:06:19,    358,    0.0,   -4.5,   0.00,   0.00, 1031.5,    0.1, -999.0
25-01-2023, 00:06:29,    358,    0.0,   -4.5,   0.00,   0.00, 1031.5,    0.2, -999.0
25-01-2023, 00:06:39,    358,    0.0,   -4.5,   0.00,   0.00, 1031.5,    0.1, -999.0
25-01-2023, 00:06:49,    358,    0.0,   -4.5,   0.00,   0.00, 1031.5,    0.1, -999.0
25-01-2023, 00:06:59,    358,    0.0,   -4.6,   0.00,   0.00, 1031.5,    0.1, -999.0
25-01-2023, 00:07:09,    358,    0.0,   -4.5,   0.00,   0.00, 1031.5,    0.1, -999.0
25-01-2023, 00:07:19,    358,    0.0,   -4.6,   0.00,   0.00, 1031.5,    0.1, -999.0
25-01-2023, 00:07:29,    358,    0.0,   -4.6,   0.00,   0.00, 1031.5,    0.2, -999.0
25-01-2023, 00:07:39,    358,    0.0,   -4.6,   0.00,   0.00, 1031.5,    0.0, -999.0
25-01-2023, 00:07:49,    358,    0.0,   -4.6,   0.00,   0.00, 1031.5,    0.2, -999.0
25-01-2023, 00:07:59,    358,    0.0,   -4.6,   0.00,   0.00, 1031.5,    0.0, -999.0
25-01-2023, 00:08:09,    358,    0.0,   -4.6,   0.00,   0.00, 1031.5,    0.0, -999.0
25-01-2023, 00:08:19,    358,    0.0,   -4.6,   0.00,   0.00, 1031.5,    0.2, -999.0
25-01-2023, 00:08:29,    358,    0.0,   -4.6,   0.00,   0.00, 1031.5,    0.1, -999.0
25-01-2023, 00:08:39,    358,    0.0,   -4.6,   0.00,   0.00, 1031.5,    0.1, -999.0
25-01-2023, 00:08:49,    358,    0.0,   -4.6,   0.00,   0.00, 1031.5,    0.0, -999.0
25-01-2023, 00:08:59,    358,    0.0,   -4.7,   0.00,   0.00, 1031.5,    0.1, -999.0
25-01-2023, 00:09:09,    358,    0.0,   -4.6,   0.00,   0.00, 1031.5,    0.1, -999.0
25-01-2023, 00:09:19,    358,    0.0,   -4.6,   0.00,   0.00, 1031.5,    0.2, -999.0
25-01-2023, 00:09:29,    358,    0.0,   -4.6,   0.00,   0.00, 1031.5,    0.0, -999.0
25-01-2023, 00:09:39,    358,    0.0,   -4.6,   0.00,   0.00, 1031.5,    0.1, -999.0
25-01-2023, 00:09:49,    358,    0.0,   -4.6,   0.00,   0.00, 1031.5,    0.2, -999.0
25-01-2023, 00:09:59,    358,    0.0,   -4.5,   0.00,   0.00, 1031.5,    0.0, -999.0
25-01-2023, 00:10:09,    358,    0.0,   -4.6,   0.00,   0.00, 1031.5,    0.0, -999.0
25-01-2023, 00:10:19,    358,    0.0,   -4.6,   0.00,   0.00, 1031.5,    0.2, -999.0
25-01-2023, 00:10:29,    358,    0.0,   -4.6,   0.00,   0.00, 1031.5,    0.1, -999.0
25-01-2023, 00:10:39,    358,    0.0,   -4.6,   0.00,   0.00, 1031.5,    0.0, -999.0
25-01-2023, 00:10:49,    358,    0.0,   -4.5,   0.00,   0.00, 1031.5,    0.0, -999.0
25-01-2023, 00:10:59,    358,    0.0,   -4.5,   0.00,   0.00, 1031.4,    0.1, -999.0
25-01-2023, 00:11:09,    358,    0.0,   -4.6,   0.00,   0.00, 1031.5,    0.1, -999.0
25-01-2023, 00:11:19,    358,    0.0,   -4.6,   0.00,   0.00, 1031.5,    0.0, -999.0
25-01-2023, 00:11:29,    358,    0.0,   -4.6,   0.00,   0.00, 1031.4,    0.2, -999.0
25-01-2023, 00:11:39,    358,    0.0,   -4.6,   0.00,   0.00, 1031.5,    0.1, -999.0
25-01-2023, 00:11:49,    358,    0.0,   -4.6,   0.00,   0.00, 1031.4,    0.1, -999.0
25-01-2023, 00:11:59,    358,    0.0,   -4.7,   0.00,   0.00, 1031.4,    0.1, -999.0
25-01-2023, 00:12:09,    358,    0.0,   -4.5,   0.00,   0.00, 1031.4,    0.1, -999.0
25-01-2023, 00:12:18,    358,    0.0,   -4.6,   0.00,   0.00, 1031.4,    0.1, -999.0
25-01-2023, 00:12:29,    358,    0.0,   -4.6,   0.00,   0.00, 1031.5,    0.0, -999.0
25-01-2023, 00:12:39,    358,    0.0,   -4.7,   0.00,   0.00, 1031.4,    0.1, -999.0
25-01-2023, 00:12:49,    358,    0.0,   -4.8,   0.00,   0.00, 1031.4,    0.1, -999.0
25-01-2023, 00:12:58,    358,    0.0,   -4.7,   0.00,   0.00, 1031.5,    0.1, -999.0
25-01-2023, 00:13:09,    358,    0.0,   -4.5,   0.00,   0.00, 1031.4,    0.1, -999.0
25-01-2023, 00:13:19,    358,    0.0,   -4.6,   0.00,   0.00, 1031.4,    0.1, -999.0
25-01-2023, 00:13:29,    357,    0.0,   -4.6,   0.00,   0.00, 1031.4,    0.2, -999.0
25-01-2023, 00:13:38,    358,    0.0,   -4.7,   0.00,   0.00, 1031.5,    0.2, -999.0
25-01-2023, 00:13:49,    358,    0.0,   -4.6,   0.00,   0.00, 1031.4,    0.2, -999.0
25-01-2023, 00:13:59,    358,    0.0,   -4.6,   0.00,   0.00, 1031.4,    0.1, -999.0
25-01-2023, 00:14:08,    358,    0.0,   -4.7,   0.00,   0.00, 1031.4,    0.1, -999.0
25-01-2023, 00:14:18,    358,    0.0,   -4.6,   0.00,   0.00, 1031.4,    0.1, -999.0
25-01-2023, 00:14:29,    358,    0.0,   -4.7,   0.00,   0.00, 1031.4,    0.0, -999.0
25-01-2023, 00:14:39,    358,    0.0,   -4.6,   0.00,   0.00, 1031.4,    0.0, -999.0
25-01-2023, 00:14:48,    358,    0.0,   -4.7,   0.00,   0.00, 1031.4,    0.2, -999.0
25-01-2023, 00:14:58,    358,    0.0,   -4.6,   0.00,   0.00, 1031.4,    0.2, -999.0
25-01-2023, 00:15:09,    358,    0.0,   -4.6,   0.00,   0.00, 1031.4,    0.1, -999.0
25-01-2023, 00:15:18,    358,    0.0,   -4.7,   0.00,   0.00, 1031.4,    0.1, -999.0
25-01-2023, 00:15:28,    358,    0.0,   -4.6,   0.00,   0.00, 1031.4,    0.0, -999.0
25-01-2023, 00:15:38,    358,    0.0,   -4.7,   0.00,   0.00, 1031.4,    0.1, -999.0
25-01-2023, 00:15:49,    358,    0.0,   -4.6,   0.00,   0.00, 1031.4,    0.2, -999.0
25-01-2023, 00:15:58,    358,    0.0,   -4.7,   0.00,   0.00, 1031.4,    0.1, -999.0
25-01-2023, 00:16:08,    358,    0.0,   -4.6,   0.00,   0.00, 1031.4,    0.0, -999.0
25-01-2023, 00:16:18,    358,    0.0,   -4.6,   0.00,   0.00, 1031.4,    0.2, -999.0
25-01-2023, 00:16:28,    358,    0.0,   -4.6,   0.00,   0.00, 1031.4,    0.1, -999.0
25-01-2023, 00:16:38,    358,    0.0,   -4.6,   0.00,   0.00, 1031.4,    0.1, -999.0
25-01-2023, 00:16:48,    358,    0.0,   -4.7,   0.00,   0.00, 1031.4,    0.1, -999.0
25-01-2023, 00:16:58,    358,    0.0,   -4.6,   0.00,   0.00, 1031.4,    0.1, -999.0
25-01-2023, 00:17:08,    359,    0.0,   -4.6,   0.00,   0.00, 1031.5,    0.0, -999.0
25-01-2023, 00:17:18,    358,    0.0,   -4.6,   0.00,   0.00, 1031.4,    0.1, -999.0
25-01-2023, 00:17:28,    358,    0.0,   -4.6,   0.00,   0.00, 1031.5,    0.2, -999.0
25-01-2023, 00:17:38,    358,    0.0,   -4.7,   0.00,   0.00, 1031.4,    0.2, -999.0
25-01-2023, 00:17:48,    358,    0.0,   -4.6,   0.00,   0.00, 1031.5,    0.2, -999.0
25-01-2023, 00:17:58,    358,    0.0,   -4.6,   0.00,   0.00, 1031.4,    0.1, -999.0
25-01-2023, 00:18:08,    358,    0.0,   -4.5,   0.00,   0.00, 1031.4,    0.2, -999.0
25-01-2023, 00:18:18,    350,    0.0,   -4.5,   0.00,   0.00, 1031.5,    0.0, -999.0
25-01-2023, 00:18:28,    350,    0.0,   -4.5,   0.00,   0.00, 1031.4,    0.2, -999.0
25-01-2023, 00:18:38,    350,    0.0,   -4.5,   0.00,   0.00, 1031.4,    0.1, -999.0
25-01-2023, 00:18:48,    350,    0.0,   -4.6,   0.00,   0.00, 1031.4,    0.2, -999.0
25-01-2023, 00:18:58,    350,    0.0,   -4.6,   0.00,   0.00, 1031.4,    0.0, -999.0
25-01-2023, 00:19:08,    350,    0.0,   -4.5,   0.00,   0.00, 1031.4,    0.3, -999.0
25-01-2023, 00:19:18,    350,    0.0,   -4.5,   0.00,   0.00, 1031.4,    0.1, -999.0
25-01-2023, 00:19:28,    351,    0.0,   -4.5,   0.00,   0.00, 1031.4,    0.1, -999.0
25-01-2023, 00:19:38,    350,    0.0,   -4.5,   0.00,   0.00, 1031.4,    0.2, -999.0
25-01-2023, 00:19:48,    350,    0.0,   -4.5,   0.00,   0.00, 1031.4,    0.1, -999.0
25-01-2023, 00:19:58,    350,    0.0,   -4.5,   0.00,   0.00, 1031.4,    0.1, -999.0
25-01-2023, 00:20:08,    350,    0.0,   -4.5,   0.00,   0.00, 1031.4,    0.2, -999.0
25-01-2023, 00:20:18,    350,    0.0,   -4.4,   0.00,   0.00, 1031.4,    0.1, -999.0
25-01-2023, 00:20:28,    350,    0.0,   -4.4,   0.00,   0.00, 1031.4,    0.1, -999.0
25-01-2023, 00:20:38,    351,    0.0,   -4.5,   0.00,   0.00, 1031.3,    0.1, -999.0
25-01-2023, 00:20:48,    350,    0.0,   -4.4,   0.00,   0.00, 1031.4,    0.1, -999.0
25-01-2023, 00:20:58,    350,    0.0,   -4.4,   0.00,   0.00, 1031.4,    0.1, -999.0
25-01-2023, 00:21:08,    350,    0.0,   -4.4,   0.00,   0.00, 1031.4,    0.0, -999.0
25-01-2023, 00:21:18,    350,    0.0,   -4.4,   0.00,   0.00, 1031.4,    0.1, -999.0
25-01-2023, 00:21:28,    350,    0.0,   -4.4,   0.00,   0.00, 1031.4,    0.1, -999.0
25-01-2023, 00:21:38,    350,    0.0,   -4.4,   0.00,   0.00, 1031.4,    0.1, -999.0
25-01-2023, 00:21:48,    350,    0.0,   -4.4,   0.00,   0.00, 1031.4,    0.2, -999.0
25-01-2023, 00:21:58,    350,    0.0,   -4.4,   0.00,   0.00, 1031.4,    0.0, -999.0
25-01-2023, 00:22:08,    350,    0.0,   -4.4,   0.00,   0.00, 1031.4,    0.1, -999.0
25-01-2023, 00:22:18,    350,    0.0,   -4.4,   0.00,   0.00, 1031.4,    0.1, -999.0
25-01-2023, 00:22:28,    350,    0.0,   -4.4,   0.00,   0.00, 1031.4,    0.1, -999.0
25-01-2023, 00:22:38,    350,    0.0,   -4.4,   0.00,   0.00, 1031.4,    0.1, -999.0
25-01-2023, 00:22:48,    350,    0.0,   -4.4,   0.00,   0.00, 1031.4,    0.1, -999.0
25-01-2023, 00:22:58,    350,    0.0,   -4.4,   0.00,   0.00, 1031.4,    0.1, -999.0
25-01-2023, 00:23:08,    350,    0.0,   -4.4,   0.00,   0.00, 1031.4,    0.3, -999.0
25-01-2023, 00:23:17,    350,    0.0,   -4.4,   0.00,   0.00, 1031.4,    0.2, -999.0
25-01-2023, 00:23:28,    350,    0.0,   -4.4,   0.00,   0.00, 1031.4,    0.1, -999.0
25-01-2023, 00:23:38,    350,    0.0,   -4.3,   0.00,   0.00, 1031.4,    0.0, -999.0
25-01-2023, 00:23:47,    350,    0.0,   -4.3,   0.00,   0.00, 1031.4,    0.1, -999.0
25-01-2023, 00:23:58,    350,    0.0,   -4.4,   0.00,   0.00, 1031.4,    0.2, -999.0
25-01-2023, 00:24:08,    350,    0.0,   -4.4,   0.00,   0.00, 1031.4,    0.3, -999.0
25-01-2023, 00:24:18,    350,    0.0,   -4.4,   0.00,   0.00, 1031.3,    0.0, -999.0
25-01-2023, 00:24:27,    350,    0.0,   -4.5,   0.00,   0.00, 1031.4,    0.1, -999.0
25-01-2023, 00:24:38,    350,    0.0,   -4.4,   0.00,   0.00, 1031.4,    0.1, -999.0
25-01-2023, 00:24:48,    350,    0.0,   -4.4,   0.00,   0.00, 1031.4,    0.0, -999.0
25-01-2023, 00:24:57,    350,    0.0,   -4.4,   0.00,   0.00, 1031.4,    0.0, -999.0
25-01-2023, 00:25:07,    350,    0.0,   -4.4,   0.00,   0.00, 1031.4,    0.1, -999.0
25-01-2023, 00:25:18,    350,    0.0,   -4.6,   0.00,   0.00, 1031.4,    0.2, -999.0
25-01-2023, 00:25:27,    350,    0.0,   -4.3,   0.00,   0.00, 1031.4,    0.0, -999.0
25-01-2023, 00:25:37,    351,    0.0,   -4.4,   0.00,   0.00, 1031.4,    0.2, -999.0
25-01-2023, 00:25:47,    350,    0.0,   -4.4,   0.00,   0.00, 1031.4,    0.1, -999.0
25-01-2023, 00:25:58,    350,    0.0,   -4.4,   0.00,   0.00, 1031.4,    0.1, -999.0
25-01-2023, 00:26:07,    350,    0.0,   -4.3,   0.00,   0.00, 1031.4,    0.0, -999.0
25-01-2023, 00:26:17,    350,    0.0,   -4.3,   0.00,   0.00, 1031.4,    0.1, -999.0
25-01-2023, 00:26:27,    350,    0.0,   -4.4,   0.00,   0.00, 1031.4,    0.1, -999.0
25-01-2023, 00:26:37,    350,    0.0,   -4.4,   0.00,   0.00, 1031.3,    0.1, -999.0
25-01-2023, 00:26:47,    351,    0.0,   -4.4,   0.00,   0.00, 1031.4,    0.0, -999.0
25-01-2023, 00:26:57,    350,    0.0,   -4.3,   0.00,   0.00, 1031.3,    0.0, -999.0
25-01-2023, 00:27:08,    350,    0.0,   -4.3,   0.00,   0.00, 1031.3,    0.2, -999.0
25-01-2023, 00:27:17,    350,    0.0,   -4.3,   0.00,   0.00, 1031.4,    0.2, -999.0
25-01-2023, 00:27:27,    350,    0.0,   -4.4,   0.00,   0.00, 1031.4,    0.0, -999.0
25-01-2023, 00:27:37,    350,    0.0,   -4.3,   0.00,   0.00, 1031.4,    0.0, -999.0
25-01-2023, 00:27:47,    350,    0.0,   -4.3,   0.00,   0.00, 1031.3,    0.1, -999.0
25-01-2023, 00:27:57,    350,    0.0,   -4.3,   0.00,   0.00, 1031.3,    0.1, -999.0
25-01-2023, 00:28:07,    350,    0.0,   -4.3,   0.00,   0.00, 1031.4,    0.1, -999.0
25-01-2023, 00:28:17,    350,    0.0,   -4.3,   0.00,   0.00, 1031.4,    0.2, -999.0
25-01-2023, 00:28:27,    350,    0.0,   -4.3,   0.00,   0.00, 1031.3,    0.1, -999.0
25-01-2023, 00:28:37,    350,    0.0,   -4.3,   0.00,   0.00, 1031.3,    0.2, -999.0
25-01-2023, 00:28:47,    350,    0.0,   -4.3,   0.00,   0.00, 1031.4,    0.1, -999.0
25-01-2023, 00:28:57,    350,    0.0,   -4.2,   0.00,   0.00, 1031.3,    0.1, -999.0
25-01-2023, 00:29:07,    350,    0.0,   -4.3,   0.00,   0.00, 1031.3,    0.1, -999.0
25-01-2023, 00:29:17,    351,    0.0,   -4.3,   0.00,   0.00, 1031.3,    0.1, -999.0
25-01-2023, 00:29:27,    350,    0.0,   -4.3,   0.00,   0.00, 1031.3,    0.1, -999.0
25-01-2023, 00:29:37,    350,    0.0,   -4.2,   0.00,   0.00, 1031.3,    0.1, -999.0
25-01-2023, 00:29:47,    350,    0.0,   -4.2,   0.00,   0.00, 1031.3,    0.1, -999.0
25-01-2023, 00:29:57,    351,    0.0,   -4.2,   0.00,   0.00, 1031.3,    0.1, -999.0
25-01-2023, 00:30:07,    350,    0.0,   -4.2,   0.00,   0.00, 1031.3,    0.0, -999.0
25-01-2023, 00:30:17,    350,    0.0,   -4.3,   0.00,   0.00, 1031.3,    0.3, -999.0
25-01-2023, 00:30:27,    350,    0.0,   -4.2,   0.00,   0.00, 1031.3,    0.0, -999.0
25-01-2023, 00:30:37,    351,    0.0,   -4.3,   0.00,   0.00, 1031.3,    0.1, -999.0
25-01-2023, 00:30:47,    350,    0.0,   -4.3,   0.00,   0.00, 1031.3,    0.1, -999.0
25-01-2023, 00:30:57,    350,    0.0,   -4.2,   0.00,   0.00, 1031.3,    0.0, -999.0
25-01-2023, 00:31:07,    350,    0.0,   -4.2,   0.00,   0.00, 1031.3,    0.0, -999.0
25-01-2023, 00:31:17,    350,    0.0,   -4.2,   0.00,   0.00, 1031.3,    0.1, -999.0
25-01-2023, 00:31:27,    350,    0.0,   -4.2,   0.00,   0.00, 1031.3,    0.2, -999.0
25-01-2023, 00:31:37,    350,    0.0,   -4.2,   0.00,   0.00, 1031.3,    0.1, -999.0
25-01-2023, 00:31:47,    350,    0.0,   -4.2,   0.00,   0.00, 1031.3,    0.2, -999.0
25-01-2023, 00:31:57,    350,    0.0,   -4.2,   0.00,   0.00, 1031.3,    0.0, -999.0
25-01-2023, 00:32:07,    350,    0.0,   -4.2,   0.00,   0.00, 1031.3,    0.0, -999.0
25-01-2023, 00:32:17,    350,    0.0,   -4.2,   0.00,   0.00, 1031.3,    0.0, -999.0
25-01-2023, 00:32:27,    351,    0.0,   -4.2,   0.00,   0.00, 1031.3,    0.0, -999.0
25-01-2023, 00:32:37,    350,    0.0,   -4.2,   0.00,   0.00, 1031.3,    0.0, -999.0
25-01-2023, 00:32:46,    350,    0.0,   -4.4,   0.00,   0.00, 1031.3,    0.1, -999.0
25-01-2023, 00:32:57,    350,    0.0,   -4.2,   0.00,   0.00, 1031.3,    0.1, -999.0
25-01-2023, 00:33:07,    350,    0.0,   -4.2,   0.00,   0.00, 1031.3,    0.1, -999.0
25-01-2023, 00:33:17,    350,    0.0,   -4.2,   0.00,   0.00, 1031.3,    0.1, -999.0
25-01-2023, 00:33:27,    350,    0.0,   -4.3,   0.00,   0.00, 1031.3,    0.4, -999.0
25-01-2023, 00:33:37,    350,    0.0,   -4.3,   0.00,   0.00, 1031.3,    0.0, -999.0
25-01-2023, 00:33:47,    350,    0.0,   -4.3,   0.00,   0.00, 1031.3,    0.1, -999.0
25-01-2023, 00:33:56,    350,    0.0,   -4.3,   0.00,   0.00, 1031.3,    0.1, -999.0
25-01-2023, 00:34:07,    351,    0.0,   -4.2,   0.00,   0.00, 1031.3,    0.1, -999.0
25-01-2023, 00:34:17,    350,    0.0,   -4.3,   0.00,   0.00, 1031.3,    0.1, -999.0
25-01-2023, 00:34:27,    351,    0.0,   -4.3,   0.00,   0.00, 1031.3,    0.2, -999.0
25-01-2023, 00:34:36,    350,    0.0,   -4.3,   0.00,   0.00, 1031.3,    0.1, -999.0
25-01-2023, 00:34:47,    350,    0.0,   -4.3,   0.00,   0.00, 1031.3,    0.1, -999.0
25-01-2023, 00:34:57,    350,    0.0,   -4.2,   0.00,   0.00, 1031.3,    0.2, -999.0
25-01-2023, 00:35:06,    350,    0.0,   -4.2,   0.00,   0.00, 1031.3,    0.1, -999.0
25-01-2023, 00:35:16,    351,    0.0,   -4.2,   0.00,   0.00, 1031.3,    0.0, -999.0
25-01-2023, 00:35:27,    350,    0.0,   -4.2,   0.00,   0.00, 1031.3,    0.1, -999.0
25-01-2023, 00:35:37,    351,    0.0,   -4.2,   0.00,   0.00, 1031.3,    0.1, -999.0
25-01-2023, 00:35:46,    350,    0.0,   -4.2,   0.00,   0.00, 1031.3,    0.1, -999.0
25-01-2023, 00:35:56,    350,    0.0,   -4.2,   0.00,   0.00, 1031.3,    0.1, -999.0
25-01-2023, 00:36:07,    350,    0.0,   -4.1,   0.00,   0.00, 1031.3,    0.1, -999.0
25-01-2023, 00:36:16,    350,    0.0,   -4.2,   0.00,   0.00, 1031.3,    0.1, -999.0
25-01-2023, 00:36:26,    350,    0.0,   -4.1,   0.00,   0.00, 1031.3,    0.2, -999.0
25-01-2023, 00:36:37,    351,    0.0,   -4.2,   0.00,   0.00, 1031.3,    0.1, -999.0
25-01-2023, 00:36:46,    350,    0.0,   -4.1,   0.00,   0.00, 1031.3,    0.1, -999.0
25-01-2023, 00:36:56,    350,    0.0,   -4.1,   0.00,   0.00, 1031.3,    0.1, -999.0
25-01-2023, 00:37:06,    351,    0.0,   -4.2,   0.00,   0.00, 1031.3,    0.1, -999.0
25-01-2023, 00:37:17,    350,    0.0,   -4.1,   0.00,   0.00, 1031.3,    0.2, -999.0
25-01-2023, 00:37:26,    350,    0.0,   -4.2,   0.00,   0.00, 1031.3,    0.1, -999.0
25-01-2023, 00:37:36,    350,    0.0,   -4.1,   0.00,   0.00, 1031.3,    0.0, -999.0
25-01-2023, 00:37:46,    350,    0.0,   -4.1,   0.00,   0.00, 1031.3,    0.1, -999.0
25-01-2023, 00:37:56,    350,    0.0,   -4.1,   0.00,   0.00, 1031.3,    0.2, -999.0
25-01-2023, 00:38:06,    350,    0.0,   -4.1,   0.00,   0.00, 1031.3,    0.2, -999.0
25-01-2023, 00:38:16,    350,    0.0,   -4.1,   0.00,   0.00, 1031.3,    0.0, -999.0
25-01-2023, 00:38:26,    350,    0.0,   -4.1,   0.00,   0.00, 1031.3,    0.1, -999.0
25-01-2023, 00:38:36,    350,    0.0,   -4.0,   0.00,   0.00, 1031.3,    0.1, -999.0
25-01-2023, 00:38:46,    351,    0.0,   -4.1,   0.00,   0.00, 1031.3,    0.1, -999.0
25-01-2023, 00:38:56,    350,    0.0,   -4.2,   0.00,   0.00, 1031.3,    0.1, -999.0
25-01-2023, 00:39:06,    350,    0.0,   -4.0,   0.00,   0.00, 1031.3,    0.0, -999.0
25-01-2023, 00:39:16,    350,    0.0,   -4.1,   0.00,   0.00, 1031.3,    0.0, -999.0
25-01-2023, 00:39:26,    350,    0.0,   -4.0,   0.00,   0.00, 1031.3,    0.1, -999.0
25-01-2023, 00:39:36,    350,    0.0,   -4.0,   0.00,   0.00, 1031.3,    0.1, -999.0
25-01-2023, 00:39:46,    350,    0.0,   -4.0,   0.00,   0.00, 1031.3,    0.1, -999.0
25-01-2023, 00:39:56,    350,    0.0,   -4.2,   0.00,   0.00, 1031.3,    0.1, -999.0
25-01-2023, 00:40:06,    350,    0.0,   -4.0,   0.00,   0.00, 1031.3,    0.0, -999.0
25-01-2023, 00:40:16,    350,    0.0,   -4.2,   0.00,   0.00, 1031.3,    0.1, -999.0
25-01-2023, 00:40:26,    350,    0.0,   -4.1,   0.00,   0.00, 1031.3,    0.2, -999.0
25-01-2023, 00:40:36,    350,    0.0,   -4.1,   0.00,   0.00, 1031.3,    0.1, -999.0
25-01-2023, 00:40:46,    350,    0.0,   -4.1,   0.00,   0.00, 1031.3,    0.0, -999.0
25-01-2023, 00:40:56,    350,    0.0,   -4.2,   0.00,   0.00, 1031.3,    0.1, -999.0
25-01-2023, 00:41:06,    350,    0.0,   -4.1,   0.00,   0.00, 1031.3,    0.2, -999.0
25-01-2023, 00:41:16,    350,    0.0,   -4.2,   0.00,   0.00, 1031.3,    0.1, -999.0
25-01-2023, 00:41:26,    350,    0.0,   -4.1,   0.00,   0.00, 1031.3,    0.1, -999.0
25-01-2023, 00:41:36,    350,    0.0,   -4.1,   0.00,   0.00, 1031.3,    0.2, -999.0
25-01-2023, 00:41:46,    350,    0.0,   -4.1,   0.00,   0.00, 1031.3,    0.1, -999.0
25-01-2023, 00:41:56,    350,    0.0,   -4.1,   0.00,   0.00, 1031.3,    0.1, -999.0
25-01-2023, 00:42:06,    350,    0.0,   -4.2,   0.00,   0.00, 1031.3,    0.0, -999.0
25-01-2023, 00:42:16,    350,    0.0,   -4.2,   0.00,   0.00, 1031.3,    0.1, -999.0
25-01-2023, 00:42:26,    350,    0.0,   -4.2,   0.00,   0.00, 1031.3,    0.2, -999.0
25-01-2023, 00:42:36,    350,    0.0,   -4.1,   0.00,   0.00, 1031.3,    0.0, -999.0
25-01-2023, 00:42:46,    350,    0.0,   -4.2,   0.00,   0.00, 1031.3,    0.2, -999.0
25-01-2023, 00:42:56,    350,    0.0,   -4.2,   0.00,   0.00, 1031.3,    0.1, -999.0
25-01-2023, 00:43:06,    350,    0.0,   -4.2,   0.00,   0.00, 1031.3,    0.2, -999.0
25-01-2023, 00:43:16,    350,    0.0,   -4.2,   0.00,   0.00, 1031.3,    0.1, -999.0
25-01-2023, 00:43:26,    350,    0.0,   -4.2,   0.00,   0.00, 1031.3,    0.2, -999.0
25-01-2023, 00:43:36,    351,    0.0,   -4.2,   0.00,   0.00, 1031.3,    0.2, -999.0
25-01-2023, 00:43:46,    350,    0.0,   -4.2,   0.00,   0.00, 1031.3,    0.2, -999.0
25-01-2023, 00:43:56,    350,    0.0,   -4.2,   0.00,   0.00, 1031.3,    0.0, -999.0
25-01-2023, 00:44:05,    350,    0.0,   -4.2,   0.00,   0.00, 1031.3,    0.2, -999.0
25-01-2023, 00:44:16,    350,    0.0,   -4.1,   0.00,   0.00, 1031.3,    0.1, -999.0
25-01-2023, 00:44:26,    351,    0.0,   -4.1,   0.00,   0.00, 1031.3,    0.1, -999.0
25-01-2023, 00:44:36,    350,    0.0,   -4.1,   0.00,   0.00, 1031.3,    0.0, -999.0
25-01-2023, 00:44:45,    350,    0.0,   -4.1,   0.00,   0.00, 1031.3,    0.1, -999.0
25-01-2023, 00:44:56,    350,    0.0,   -4.2,   0.00,   0.00, 1031.3,    0.1, -999.0
25-01-2023, 00:45:06,    350,    0.0,   -4.1,   0.00,   0.00, 1031.3,    0.3, -999.0
25-01-2023, 00:45:15,    350,    0.0,   -4.1,   0.00,   0.00, 1031.3,    0.1, -999.0
25-01-2023, 00:45:25,    350,    0.0,   -4.1,   0.00,   0.00, 1031.3,    0.1, -999.0
25-01-2023, 00:45:36,    350,    0.0,   -4.0,   0.00,   0.00, 1031.3,    0.3, -999.0
25-01-2023, 00:45:46,    350,    0.0,   -4.0,   0.00,   0.00, 1031.3,    0.1, -999.0
25-01-2023, 00:45:55,    350,    0.0,   -4.1,   0.00,   0.00, 1031.3,    0.3, -999.0
25-01-2023, 00:46:06,    350,    0.0,   -4.1,   0.00,   0.00, 1031.3,    0.3, -999.0
25-01-2023, 00:46:16,    351,    0.0,   -4.1,   0.00,   0.00, 1031.3,    0.0, -999.0
25-01-2023, 00:46:25,    350,    0.0,   -4.1,   0.00,   0.00, 1031.3,    0.0, -999.0
25-01-2023, 00:46:35,    350,    0.0,   -4.0,   0.00,   0.00, 1031.3,    0.1, -999.0
25-01-2023, 00:46:46,    350,    0.0,   -4.0,   0.00,   0.00, 1031.3,    0.1, -999.0